Flag for Ukraine Weather past 2 weeks in Kryvyi Rih, Ukraine

Now
46 °F

Light rain. Low clouds.


Feels Like: 39 °F
Forecast: 40 / 53 °F
Wind: 20 mph from Southeast

Location: Krivyy Rih / Dnipropetrovs'k

Current Time: Mar 29, 2015 at 1:28:00 PM

Latest Report: Mar 29, 2015 at 1:00 PM


Visibility: 3 mi

Pressure: 29.65 "Hg

Humidity: 93%

Dew point: 45 °F

Location of Kryvyi RihLocation

Historic Weather in Kryvyi Rih — Graph

°F

Kryvyi Rih temperature yesterday

Maximum temperature yesterday: 55 °F (at 12:00 AM)
Minimum temperature yesterday: 41 °F (at 7:00 PM)
Average temperature yesterday: 48 °F

Past Weeks' High & Low Weather Summary

 TemperatureHumidityPressure
High66 °F (Mar 27, 2:00 PM)93% (Mar 14, 11:00 AM)30.69 "Hg (Mar 14, 11:00 AM)
Low23 °F (Mar 24, 2:00 AM)23% (Mar 16, 1:00 PM)29.62 "Hg (Mar 29, 6:00 AM)
Average42 °F60%30.20 "Hg
* Reported Mar 14 11:00 AM — Mar 29 12:00 Noon, Kryvyi Rih, Weather by CustomWeather, © 2015

Note: Actual official high and low records may vary slightly from our data, if they occured in-between our weather recording intervals... More about our weather records

Advertising

Kryvyi Rih weather history for previous 24 hours

 ConditionsComfort  
Time TempWeatherWind HumidityBarometerVisibility
12:00 PM
Sun, Mar 29
46 °FLight rain. Low clouds.20 mph87%29.65 "Hg3 mi
11:30 AM45 °FLight rain. Low clouds.17 mph93%29.65 "Hg3 mi
11:02 AM45 °FLight rain. Low clouds.17 mph93%29.65 "Hg1 mi
10:30 AM45 °FLight rain. Low clouds.20 mph93%29.65 "Hg1 mi
10:00 AM45 °FLight rain. Low clouds.22 mph93%29.65 "HgN/A
9:30 AM43 °FLight rain. Low clouds.22 mph93%29.62 "HgN/A
9:00 AM43 °FLight rain. Low clouds.26 mph93%29.62 "HgN/A
8:30 AM41 °FLight rain. Low clouds.24 mph93%29.62 "HgN/A
8:00 AM41 °FLight rain. Low clouds.20 mph93%29.62 "Hg3 mi
7:30 AM39 °FLight rain. Fog.22 mph93%29.62 "Hg2 mi
7:00 AM39 °FLight rain. Fog.20 mph93%29.62 "Hg2 mi
6:30 AM39 °FSprinkles. Fog.20 mph93%29.62 "Hg1 mi
6:00 AM39 °FSprinkles. Mostly cloudy.20 mph93%29.62 "Hg1 mi
5:30 AM39 °FSprinkles. Mostly cloudy.17 mph87%29.65 "Hg2 mi
5:00 AM39 °FSprinkles. Mostly cloudy.20 mph87%29.65 "Hg2 mi
4:30 AM39 °FSprinkles. Mostly cloudy.20 mph87%29.65 "Hg2 mi
4:00 AM39 °FSprinkles. Mostly cloudy.20 mph87%29.68 "Hg2 mi
2:30 AM39 °FSprinkles. Mostly cloudy.22 mph87%29.68 "Hg2 mi
2:00 AM39 °FSprinkles. Mostly cloudy.20 mph87%29.68 "Hg3 mi
1:30 AM37 °FSprinkles. Mostly cloudy.20 mph93%29.71 "Hg2 mi
1:00 AM37 °FSprinkles. Mostly cloudy.20 mph93%29.71 "Hg2 mi
12:30 AM39 °FSprinkles. Mostly cloudy.20 mph87%29.71 "Hg3 mi
12:00 AM39 °FSprinkles. Mostly cloudy.22 mph87%29.71 "Hg2 mi
11:30 PM
Sat, Mar 28
41 °FSprinkles. Mostly cloudy.20 mph87%29.74 "Hg1 mi
11:00 PM41 °FSprinkles. Mostly cloudy.24 mph87%29.74 "Hg2 mi
10:30 PM41 °FSprinkles. Mostly cloudy.22 mph87%29.77 "Hg1 mi
10:00 PM41 °FSprinkles. Mostly cloudy.22 mph87%29.77 "Hg2 mi
9:30 PM41 °FMostly cloudy.24 mph87%29.77 "HgN/A
9:00 PM41 °FSprinkles. Mostly cloudy.24 mph87%29.77 "HgN/A
8:30 PM41 °FSprinkles. Mostly cloudy.22 mph87%29.80 "Hg2 mi
8:00 PM41 °FSprinkles. Mostly cloudy.24 mph87%29.80 "HgN/A
7:30 PM41 °FSprinkles. Mostly cloudy.22 mph87%29.80 "Hg2 mi
7:00 PM41 °FSprinkles. Mostly cloudy.22 mph87%29.80 "Hg1 mi
6:30 PM43 °FSprinkles. Mostly cloudy.22 mph81%29.80 "Hg2 mi
6:00 PM43 °FSprinkles. More clouds than sun.20 mph81%29.83 "Hg1 mi
5:30 PM43 °FSprinkles. More clouds than sun.22 mph81%29.83 "Hg1 mi
5:00 PM43 °FSprinkles. More clouds than sun.20 mph81%29.83 "Hg2 mi
4:46 PM45 °FSprinkles. More clouds than sun.20 mph76%29.83 "Hg2 mi
4:30 PM45 °FSprinkles. More clouds than sun.20 mph76%29.83 "Hg2 mi
4:00 PM45 °FSprinkles. More clouds than sun.20 mph76%29.83 "Hg2 mi
3:30 PM48 °FPassing clouds.22 mph58%29.86 "HgN/A
3:00 PM48 °FSunny.20 mph58%29.86 "Hg10 mi
2:30 PM52 °FPassing clouds.22 mph47%29.86 "HgN/A
2:00 PM52 °FPassing clouds.24 mph47%29.86 "HgN/A
1:30 PM52 °FPassing clouds.24 mph50%29.86 "HgN/A
1:04 PM52 °FPassing clouds.20 mph50%29.86 "HgN/A
Weather by CustomWeather, © 2015

See weather overviewHow to use our weather pages